When you browse on this site, cookies collect data to enhance your experience and personalize the content and advertising you see.
Visit our Privacy Policy to learn more. By continuing to use the site, you agree to this use of cookies and data.
  • In Slovakia
  • List of Countries
  • For 7 days
  • Water Temperature
  • Satellite Maps
  • Weather Map
  • Weather Widgets
  • user-avatar
    Login

    Hourly Weather Benguela

    Today, 20 May, Monday

    Time Temperature Precipitation Wind Pressure Humidity
    00:00 +26°C° 0 mm 1 mps 760 mmHg 87%
    01:00 +26°C° 0 mm 1 mps 760 mmHg 90%
    02:00 +26°C° 0 mm 1 mps 760 mmHg 90%
    03:00 +25°C° 0 mm 1 mps 760 mmHg 90%
    04:00 +25°C° 0 mm 1 mps 759 mmHg 90%
    05:00 +26°C° 0 mm 1 mps 759 mmHg 89%
    06:00 +26°C° 0 mm 1 mps 760 mmHg 87%
    07:00 +27°C° 0 mm 1 mps 760 mmHg 85%
    08:00 +29°C° 0 mm 1 mps 760 mmHg 76%
    09:00 +31°C° 0 mm 1 mps 760 mmHg 67%
    10:00 +32°C° 0 mm 2 mps 760 mmHg 59%
    11:00 +34°C° 0 mm 3 mps 759 mmHg 57%
    12:00 +35°C° 0 mm 4 mps 758 mmHg 56%
    13:00 +35°C° 0 mm 4 mps 758 mmHg 57%
    14:00 +34°C° 0 mm 4 mps 757 mmHg 60%
    15:00 +34°C° 0 mm 4 mps 757 mmHg 63%
    16:00 +33°C° 0 mm 4 mps 756 mmHg 66%
    17:00 +30°C° 0 mm 3 mps 757 mmHg 71%
    18:00 +29°C° 0 mm 3 mps 757 mmHg 77%
    19:00 +27°C° 0 mm 2 mps 757 mmHg 82%
    20:00 +27°C° 0 mm 2 mps 758 mmHg 84%
    21:00 +26°C° 0 mm 1 mps 758 mmHg 85%
    22:00 +26°C° 0 mm 1 mps 758 mmHg 87%
    23:00 +26°C° 0 mm 1 mps 758 mmHg 88%

    Tomorrow, 21 May, Tuesday

    Time Temperature Precipitation Wind Pressure Humidity
    00:00 +26°C° 0 mm 1 mps 758 mmHg 89%
    01:00 +26°C° 0 mm 1 mps 758 mmHg 90%
    02:00 +25°C° 0 mm 1 mps 758 mmHg 88%
    03:00 +25°C° 0 mm 1 mps 758 mmHg 87%
    04:00 +25°C° 0 mm 1 mps 758 mmHg 86%
    05:00 +25°C° 0 mm 1 mps 758 mmHg 82%
    06:00 +25°C° 0 mm 1 mps 758 mmHg 77%
    07:00 +26°C° 0 mm 1 mps 759 mmHg 73%
    08:00 +28°C° 0 mm 1 mps 759 mmHg 64%
    09:00 +30°C° 0 mm 2 mps 759 mmHg 54%
    10:00 +34°C° 0 mm 2 mps 759 mmHg 45%
    11:00 +35°C° 0 mm 3 mps 759 mmHg 46%
    12:00 +35°C° 0 mm 4 mps 758 mmHg 46%
    13:00 +36°C° 0 mm 4 mps 758 mmHg 47%
    14:00 +35°C° 0 mm 4 mps 757 mmHg 53%
    15:00 +34°C° 0 mm 4 mps 757 mmHg 59%
    16:00 +33°C° 0 mm 3 mps 757 mmHg 66%
    17:00 +30°C° 0 mm 2 mps 757 mmHg 73%
    18:00 +28°C° 0 mm 1 mps 758 mmHg 81%
    19:00 +24°C° 0 mm 0 mps 758 mmHg 88%
    20:00 +26°C° 0 mm 1 mps 758 mmHg 89%
    21:00 +26°C° 0 mm 1 mps 759 mmHg 89%
    22:00 +25°C° 0 mm 1 mps 759 mmHg 90%
    23:00 +25°C° 0 mm 1 mps 759 mmHg 89%

    Day after tomorrow, 22 May, Wednesday

    Time Temperature Precipitation Wind Pressure Humidity
    00:00 +26°C° 0 mm 1 mps 759 mmHg 89%
    01:00 +26°C° 0 mm 2 mps 759 mmHg 88%
    02:00 +25°C° 0 mm 2 mps 759 mmHg 87%
    03:00 +25°C° 0 mm 2 mps 759 mmHg 86%
    04:00 +25°C° 0 mm 2 mps 758 mmHg 85%
    05:00 +25°C° 0 mm 2 mps 758 mmHg 82%
    06:00 +26°C° 0 mm 2 mps 759 mmHg 78%
    07:00 +26°C° 0 mm 2 mps 759 mmHg 75%
    08:00 +29°C° 0 mm 2 mps 759 mmHg 64%
    09:00 +31°C° 0 mm 2 mps 759 mmHg 53%
    10:00 +35°C° 0 mm 2 mps 760 mmHg 41%
    11:00 +35°C° 0 mm 3 mps 759 mmHg 41%
    12:00 +36°C° 0 mm 4 mps 758 mmHg 41%
    13:00 +36°C° 0 mm 5 mps 758 mmHg 41%
    14:00 +36°C° 0 mm 5 mps 757 mmHg 42%
    15:00 +35°C° 0 mm 5 mps 757 mmHg 44%
    16:00 +34°C° 0 mm 4 mps 756 mmHg 45%
    17:00 +32°C° 0 mm 4 mps 757 mmHg 53%
    18:00 +29°C° 0 mm 3 mps 757 mmHg 60%
    19:00 +26°C° 0 mm 2 mps 758 mmHg 68%
    20:00 +26°C° 0 mm 2 mps 758 mmHg 70%
    21:00 +26°C° 0 mm 1 mps 759 mmHg 72%
    22:00 +25°C° 0 mm 1 mps 760 mmHg 74%
    23:00 +25°C° 0 mm 1 mps 759 mmHg 74%

    23 May, Thursday

    Time Temperature Precipitation Wind Pressure Humidity
    00:00 +25°C° 0 mm 1 mps 759 mmHg 75%
    01:00 +24°C° 0 mm 1 mps 759 mmHg 76%
    02:00 +24°C° 0 mm 1 mps 759 mmHg 75%
    03:00 +24°C° 0 mm 1 mps 758 mmHg 74%
    04:00 +24°C° 0 mm 1 mps 758 mmHg 73%
    05:00 +24°C° 0 mm 1 mps 758 mmHg 71%
    06:00 +25°C° 0 mm 1 mps 759 mmHg 68%
    07:00 +25°C° 0 mm 1 mps 759 mmHg 66%
    08:00 +28°C° 0 mm 1 mps 759 mmHg 56%
    09:00 +30°C° 0 mm 1 mps 759 mmHg 47%
    10:00 +33°C° 0 mm 1 mps 759 mmHg 38%
    11:00 +35°C° 0 mm 2 mps 759 mmHg 37%
    12:00 +36°C° 0 mm 3 mps 758 mmHg 35%
    13:00 +36°C° 0 mm 4 mps 757 mmHg 34%
    14:00 +35°C° 0 mm 4 mps 757 mmHg 38%
    15:00 +34°C° 0 mm 4 mps 756 mmHg 42%
    16:00 +33°C° 0 mm 4 mps 756 mmHg 46%
    17:00 +30°C° 0 mm 3 mps 757 mmHg 54%
    18:00 +28°C° 0 mm 3 mps 757 mmHg 63%
    19:00 +26°C° 0 mm 2 mps 758 mmHg 71%
    20:00 +25°C° 0 mm 2 mps 759 mmHg 73%
    21:00 +25°C° 0 mm 1 mps 759 mmHg 76%
    22:00 +25°C° 0 mm 1 mps 760 mmHg 78%
    23:00 +25°C° 0 mm 1 mps 759 mmHg 77%

    24 May, Friday

    Time Temperature Precipitation Wind Pressure Humidity
    00:00 +24°C° 0 mm 1 mps 759 mmHg 77%
    01:00 +24°C° 0 mm 1 mps 759 mmHg 77%
    02:00 +24°C° 0 mm 1 mps 759 mmHg 75%
    03:00 +24°C° 0 mm 1 mps 758 mmHg 73%
    04:00 +24°C° 0 mm 1 mps 758 mmHg 71%
    05:00 +25°C° 0 mm 1 mps 759 mmHg 67%
    06:00 +25°C° 0 mm 2 mps 759 mmHg 63%
    07:00 +26°C° 0 mm 2 mps 759 mmHg 58%
    08:00 +28°C° 0 mm 2 mps 759 mmHg 49%
    09:00 +31°C° 0 mm 2 mps 759 mmHg 40%
    10:00 +35°C° 0 mm 2 mps 759 mmHg 31%
    11:00 +35°C° 0 mm 3 mps 759 mmHg 34%
    12:00 +35°C° 0 mm 4 mps 758 mmHg 36%
    13:00 +35°C° 0 mm 5 mps 757 mmHg 39%
    14:00 +34°C° 0 mm 4 mps 757 mmHg 42%
    15:00 +34°C° 0 mm 4 mps 757 mmHg 45%
    16:00 +33°C° 0 mm 4 mps 756 mmHg 47%
    17:00 +30°C° 0 mm 3 mps 757 mmHg 54%
    18:00 +28°C° 0 mm 3 mps 758 mmHg 61%
    19:00 +26°C° 0 mm 3 mps 759 mmHg 67%
    20:00 +26°C° 0 mm 2 mps 759 mmHg 70%
    21:00 +26°C° 0 mm 1 mps 760 mmHg 72%
    22:00 +25°C° 0 mm 1 mps 760 mmHg 75%
    23:00 +25°C° 0 mm 1 mps 760 mmHg 75%

    25 May, Saturday

    Time Temperature Precipitation Wind Pressure Humidity
    00:00 +25°C° 0 mm 1 mps 760 mmHg 76%
    01:00 +25°C° 0 mm 2 mps 759 mmHg 77%
    02:00 +25°C° 0 mm 2 mps 759 mmHg 73%
    03:00 +26°C° 0 mm 3 mps 759 mmHg 68%
    04:00 +26°C° 0 mm 3 mps 758 mmHg 64%
    05:00 +27°C° 0 mm 2 mps 759 mmHg 59%
    06:00 +27°C° 0 mm 2 mps 759 mmHg 54%
    07:00 +28°C° 0 mm 1 mps 759 mmHg 49%
    08:00 +30°C° 0 mm 2 mps 759 mmHg 44%
    09:00 +32°C° 0 mm 2 mps 759 mmHg 39%
    10:00 +36°C° 0 mm 2 mps 759 mmHg 34%
    11:00 +36°C° 0 mm 3 mps 758 mmHg 36%
    12:00 +36°C° 0 mm 4 mps 757 mmHg 38%
    13:00 +36°C° 0 mm 4 mps 757 mmHg 40%
    14:00 +35°C° 0 mm 4 mps 756 mmHg 41%
    15:00 +35°C° 0 mm 4 mps 756 mmHg 43%
    16:00 +34°C° 0 mm 4 mps 756 mmHg 44%
    17:00 +31°C° 0 mm 3 mps 757 mmHg 50%
    18:00 +29°C° 0 mm 3 mps 757 mmHg 56%
    19:00 +27°C° 0 mm 2 mps 758 mmHg 61%
    20:00 +27°C° 0 mm 2 mps 758 mmHg 64%
    21:00 +27°C° 0 mm 1 mps 759 mmHg 66%
    22:00 +26°C° 0 mm 1 mps 759 mmHg 69%
    23:00 +26°C° 0 mm 1 mps 759 mmHg 69%
    Show more